Change the Weather History Date:

Sunday, November 28, 2010

  Actual Average Record
Temperature  
Mean Temperature 11 °F -  
Max Temperature 21 °F 28 °F 44 °F (1976)
Min Temperature 1 °F 13 °F -22 °F (1990)
Degree Days  
Heating Degree Days 54    
Moisture  
Dew Point 11 °F    
Average Humidity 88    
Maximum Humidity 100    
Minimum Humidity 68    
Precipitation  
Precipitation 0.00 in - - ()
Sea Level Pressure  
Sea Level Pressure 29.78 in    
Wind  
Wind Speed 2 mph (ENE)    
Max Wind Speed 6 mph    
Max Gust Speed 30 mph    
Visibility 4 miles    
Events      
Averages and records for this station are not official NWS values.
T = Trace of Precipitation, MM = Missing Value Source: NWS Daily Summary

Daily Weather History Graph

Daily Weather History Graph

Search for Another Location

Airport or City:

Trip Planner

Search our weather history database for the weather conditions in past years. The results will help you decide how hot, cold, wet, or windy it might be!

Date:

Astronomy

Nov. 28, 2010 Rise Set
Actual Time 9:37 AM AKST 4:06 PM AKST
Civil Twilight 8:42 AM AKST 5:01 PM AKST
Nautical Twilight 7:47 AM AKST 5:56 PM AKST
Astronomical Twilight 6:56 AM AKST 6:47 PM AKST
Moon No Moon Rise 1:32 PM AKST (11/28)
Length of Visible Light 8h 18m
Length of Day
6h 29m
Waning Gibbous, 50% of the Moon is Illuminated
Nov 28
Waning Gibbous
Dec 5
New
Dec 13
First Quarter
Dec 20
Full
Dec 27
Last Quarter

Hourly Weather History & Observations

Time (AKST) Temp. Windchill Dew Point Humidity Pressure Visibility Wind Dir Wind Speed Gust Speed Precip Events Conditions
12:56 AM 21.2 °F 14.9 °F 15.8 °F 80% 29.81 in 3.0 mi ENE 4.6 mph - N/A   Overcast
1:22 AM 21.2 °F 14.9 °F 17.6 °F 86% 29.81 in 2.5 mi ENE 4.6 mph - N/A   Overcast
1:55 AM 21.2 °F 14.9 °F 17.6 °F 86% 29.80 in 1.8 mi ENE 4.6 mph - N/A   Overcast
1:56 AM 21.2 °F 14.9 °F 17.6 °F 86% 29.80 in 1.8 mi ENE 4.6 mph - N/A   Overcast
2:56 AM 19.4 °F 12.8 °F 17.6 °F 93% 29.80 in 1.8 mi ENE 4.6 mph - N/A   Overcast
3:02 AM 19.4 °F - 15.8 °F 86% 29.80 in 2.0 mi Calm Calm - N/A   Overcast
3:11 AM 19.4 °F - 17.6 °F 93% 29.80 in 1.8 mi Calm Calm - N/A   Overcast
3:21 AM 19.4 °F - 17.6 °F 93% 29.80 in 2.0 mi Calm Calm - N/A   Overcast
3:31 AM 19.4 °F 14.3 °F 17.6 °F 93% 29.79 in 1.8 mi East 3.5 mph - N/A   Overcast
3:46 AM 19.4 °F 14.3 °F 15.8 °F 86% 29.79 in 2.0 mi East 3.5 mph - N/A   Overcast
3:56 AM 19.4 °F 12.8 °F 17.6 °F 93% 29.79 in 2.0 mi East 4.6 mph - N/A   Overcast
4:01 AM 19.4 °F 12.8 °F 17.6 °F 93% 29.79 in 3.0 mi East 4.6 mph - N/A   Overcast
4:48 AM 19.4 °F 14.3 °F 15.8 °F 86% 29.79 in 2.5 mi East 3.5 mph - N/A   Overcast
4:56 AM 19.4 °F 14.3 °F 17.6 °F 93% 29.79 in 2.0 mi East 3.5 mph - N/A   Overcast
5:00 AM 19.4 °F 14.3 °F 17.6 °F 93% 29.79 in 1.8 mi East 3.5 mph - N/A   Overcast
5:02 AM 19.4 °F 14.3 °F 17.6 °F 93% 29.79 in 2.0 mi East 3.5 mph - N/A   Overcast
5:14 AM 19.4 °F 14.3 °F 17.6 °F 93% 29.79 in 3.0 mi East 3.5 mph - N/A   Overcast
5:45 AM 19.4 °F - 17.6 °F 93% 29.79 in 2.5 mi Calm Calm - N/A   Overcast
5:53 AM 19.4 °F - 17.6 °F 93% 29.79 in 1.8 mi Calm Calm - N/A   Overcast
5:56 AM 19.4 °F - 17.6 °F 93% 29.79 in 1.5 mi Calm Calm - N/A   Overcast
6:09 AM 19.4 °F - 17.6 °F 93% 29.79 in 2.0 mi Calm Calm - N/A   Overcast
6:29 AM 19.4 °F - 17.6 °F 93% 29.79 in 1.8 mi Calm Calm - N/A   Overcast
6:37 AM 19.4 °F - 17.6 °F 93% 29.78 in 2.0 mi Calm Calm - N/A   Overcast
6:44 AM 19.4 °F - 15.8 °F 86% 29.78 in 3.0 mi Calm Calm - N/A   Overcast
6:56 AM 19.4 °F - 15.8 °F 86% 29.78 in 5.0 mi Calm Calm - N/A   Overcast
7:56 AM 15.8 °F - 12.2 °F 86% 29.78 in 10.0 mi Calm Calm - N/A   Overcast
8:56 AM 12.2 °F - 6.8 °F 79% 29.78 in 7.0 mi Calm Calm - N/A   Clear
9:56 AM 10.4 °F - 8.6 °F 92% 29.79 in 10.0 mi Calm Calm - N/A   Clear
10:55 AM 5.0 °F - 1.4 °F 85% 29.80 in 1.8 mi Calm Calm - N/A   Clear
10:56 AM 3.2 °F - 1.4 °F 92% 29.80 in 1.0 mi Calm Calm - N/A   Clear
10:57 AM 3.2 °F - 1.4 °F 92% 29.80 in 0.5 mi Calm Calm - N/A   Unknown
11:00 AM 3.2 °F - 1.4 °F 92% 29.80 in 0.2 mi Calm Calm - N/A   Unknown
11:09 AM 6.8 °F - 1.4 °F 79% 29.80 in 0.5 mi Calm Calm - N/A   Unknown
11:12 AM 6.8 °F - 3.2 °F 85% 29.80 in 1.8 mi Calm Calm - N/A   Clear
11:13 AM 6.8 °F - 3.2 °F 85% 29.80 in 4.0 mi Calm Calm - N/A   Clear
11:56 AM 10.4 °F - 10.4 °F 100% 29.79 in 10.0 mi Calm Calm - N/A   Clear
12:53 PM 10.4 °F - 10.4 °F 100% 29.79 in 2.5 mi Calm Calm - N/A   Clear
12:55 PM 10.4 °F - 10.4 °F 100% 29.79 in 1.8 mi Calm Calm - N/A   Clear
12:56 PM 8.6 °F - 8.6 °F 100% 29.79 in 1.5 mi Calm Calm - N/A   Clear
1:04 PM 10.4 °F - 5.0 °F 79% 29.79 in 2.5 mi Calm Calm - N/A   Clear
1:05 PM 10.4 °F - 5.0 °F 79% 29.79 in 3.0 mi Calm Calm - N/A   Clear
1:34 PM 10.4 °F - 10.4 °F 100% 29.78 in 2.5 mi Calm Calm - N/A   Clear
1:36 PM 8.6 °F - 8.6 °F 100% 29.78 in 1.8 mi Calm Calm - N/A   Clear
1:43 PM 8.6 °F - 3.2 °F 79% 29.79 in 2.0 mi Calm Calm - N/A   Clear
1:44 PM 8.6 °F - 1.4 °F 73% 29.79 in 3.0 mi Calm Calm - N/A   Clear
1:56 PM 10.4 °F - 8.6 °F 92% 29.78 in 10.0 mi Calm Calm - N/A   Clear
2:56 PM 10.4 °F - 6.8 °F 85% 29.76 in 10.0 mi Calm Calm - N/A   Clear
3:56 PM 8.6 °F - 5.0 °F 85% 29.76 in 9.0 mi Calm Calm - N/A   Clear
4:56 PM 6.8 °F - 3.2 °F 85% 29.76 in 10.0 mi Calm Calm - N/A   Clear
5:56 PM 6.8 °F -3.5 °F -0.4 °F 72% 29.76 in 9.0 mi East 5.8 mph - N/A   Clear
6:56 PM 3.2 °F - -0.4 °F 85% 29.76 in 10.0 mi Calm Calm - N/A   Clear
7:56 PM 1.4 °F - -0.4 °F 92% 29.75 in 10.0 mi Calm Calm - N/A   Clear
8:56 PM 17.6 °F 12.3 °F 14.0 °F 86% 29.74 in 10.0 mi North 3.5 mph 29.9 mph N/A   Clear
9:56 PM 17.6 °F 12.3 °F 10.4 °F 73% 29.74 in 10.0 mi NNW 3.5 mph - N/A   Clear
10:56 PM 17.6 °F 12.3 °F 8.6 °F 68% 29.75 in 10.0 mi NNW 3.5 mph - N/A   Clear
11:56 PM 17.6 °F 12.3 °F 8.6 °F 68% 29.74 in 10.0 mi North 3.5 mph - N/A   Clear